Location: G�kdere
(37.0328°N, 30.9000°E)
Time: 04:57:51
(UTC+00:00)

COSMOS 2428 - Pass Details

Date: 03 March 2021
Orbit: 845 x 858 km, 70.9° (Epoch: 19 April)

Event Time Altitude Azimuth Distance (km) Brightness Sun altitude
Rises 17:31:40 0° 189° (S) 3,388 5.9 -20.5°
Reaches altitude 10° 17:34:08 10° 185° (S) 2,456 5.1 -21.0°
Maximum altitude 17:39:38 58° 108° (ESE) 984 2.7 -22.1°
Enters shadow 17:42:22 30° 42° (NE) 1,492 3.7 -22.7°
